Dauntless Aviation
Greetings, Guest! To participate, [sign up for a free account] or [log in]
Airports North America United States Colorado
98CO

NCMC HELIPORT

GREELEY, CO, USA

Airport Info

Location

Latitude / Longitude: 40°24'53"N / 104°42'28"W
  40°24.9'N / 104°42.4667'W
  40.4150 / -104.7078
Elevation: 4882 ft. (estimated)
Variation: 12E (1985)
From city: 00 miles N of GREELEY, CO

Operations

Facility use: Private
Sectional chart: DENVER
Control tower: no
Boundary ARTCC: DENVER
FSS: DENVER [1-800-WX-BRIEF]
Segmented circle: no

Communications

Nearby radio navigation aids

VOR radial/distance VOR name Freq Var
GLL 233oT/8.9 GILL VORTAC 114.20 13E
DVV 353oT/31.5 MILE HIGH VORTAC 114.70 11E
BJC 33oT/36.1 JEFFCO VOR/DME 115.40 11E
DEN 357oT/36.2 DENVER VOR/DME 117.90 11E
 
NDB name Hdg/Dist Freq Var ID

Services

Runway Information

Helipad H1

Dimensions: 40 x 40 ft.
Surface: PORTLAND CEMENT CONCRETE,NO SPECIAL SURFACE TREATMENT
 

Additional Remarks

Instrument Procedures

No published instrument procedures available
Topographic chart at:
Satellite photo at:
Airport distance calculator
From:
Weather Reports

METAR

KGXY
4.2nm NE
KGXY 231635Z AUTO 33016G20KT 10SM CLR 06/M08 A2982 RMK AO1
KFNL
14.3nm W
KFNL 231635Z AUTO 36014KT 10SM CLR 05/M09 A2980 RMK AO1
KLMO
25.8nm SW
KLMO 231635Z AUTO 08005KT 10SM CLR 07/M07 A2982 RMK AO2 T00671073
KEIK
28.6nm S
KEIK 231635Z AUTO 06004KT 10SM CLR 05/M08 A2980 RMK AO2 T00501082
KBDU
33.3nm SW
KBDU 231637Z AUTO 10007KT 10SM CLR 05/M06 A2979 RMK AO2

TAF

KDEN
35.0nm SE
KDEN 231502Z 2315/2418 36010KT P6SM SCT070 BKN100 FM231700 02014G22KT P6SM SCT050 SCT070 BKN100 FM231900 35020G34KT P6SM VCSH SCT060 BKN100 FM240100 30013KT P6SM SCT090 BKN120 FM240600 27010KT P6SM SCT100 BKN150 FM240900 25011KT P6SM SCT100 BKN150 FM241600 33014G22KT P6SM SCT080 BKN120
KBJC
35.3nm S
KBJC 231339Z 2314/2412 08008KT P6SM VCSH SCT020 BKN080 FM231500 03011KT P6SM SCT050 SCT070 BKN100 FM231800 34020G32KT P6SM VCSH SCT060 BKN100 FM240100 30013KT P6SM SCT090 BKN120 FM240800 27016G28KT P6SM SCT100 BKN150
Safelog

 

Dauntless Aviation

© 2007-2014 Dauntless Aviation, all rights reserved
Information provided via PilotNav comes from a variety of official and unofficial data sources. As errors are possible, do not use PilotNav for primary flight planning purposes. Verify any information that you receive via PilotNav with current and canonical charts and other official documents. The material in this database is subject to database copyrights held by Dauntless Aviation and may not be copied without the express permission of Dauntless Aviation - licenses for use of part of all of this data are available for purchase; enquire via the Dauntless Aviation helpdesk. A number of mechanisms and markers exist in the database to protect against and identify infringement / copyright. Automated queries against this website are stictly prohibited, and all activity is logged and analyzed.